Regional Weather Roundup
Issued by NWS

Home | Current Version | Previous Version | Graphics & Text | Print | Product List | Glossary On
Versions: 1 2 3 4 5 6 7 8 9 10 11 12 13 14 15 16 17 18 19 20 21 22 23 24 25 26 27 28 29 30 31 32 33 34 35 36 37 38 39 40 41 42 43 44 45 46 47 48 49 50
000
ASUS43 KFSD 241402
RWRSD

WEATHER ROUNDUP FOR SOUTH DAKOTA
NATIONAL WEATHER SERVICE SIOUX FALLS SD
900 AM CDT MON APR 24 2017

NOTE: "FAIR" INDICATES FEW OR NO CLOUDS BELOW 12,000 FEET WITH NO
SIGNIFICANT WEATHER AND/OR OBSTRUCTIONS TO VISIBILITY.


SDZ001>005-009-010-012>017-241500-
NORTHWEST AND NORTH CENTRAL SOUTH DAKOTA

CITY           SKY/WX    TMP DP  RH WIND       PRES   REMARKS
BUFFALO          N/A     37  35  92 NW8       29.59R
FAITH            N/A     32  32 100 N13       29.62S WCI  22
MOBRIDGE       CLOUDY    38  33  82 N15       29.56F
$$

SDZ012>016-024>037-041>051-057-063-072>074-241500-
SOUTHWEST AND SOUTH CENTRAL SOUTH DAKOTA

CITY           SKY/WX    TMP DP  RH WIND       PRES   REMARKS
RAPID CTY ARPT FOG       39  38  96 N20       29.61S VSB 1
PIERRE         CLOUDY    40  36  86 NW15      29.54R
CUSTER         CLOUDY    46  32  58 NW9       29.61S
ELLSWORTH AFB  FOG       38  38 100 N14       29.61  VSB 3/4
PHILIP         CLOUDY    38  36  92 NW15      29.62R
PINE RIDGE     CLOUDY    44  41  89 CALM      29.62R
SPEARFISH      CLOUDY    43  43 100 W9        29.64F
WINNER         FAIR      47  39  74 NW17      29.56R
$$

SDZ004>011-016>023-039-040-241500-
NORTHEAST SOUTH DAKOTA

CITY           SKY/WX    TMP DP  RH WIND       PRES   REMARKS
ABERDEEN       CLOUDY    46  39  76 NE5       29.52F
WATERTOWN      CLOUDY    52  37  56 S20       29.57F
BROOKINGS      CLOUDY    53  37  54 S18       29.60F
SISSETON         N/A     55  41  59 S7        29.55F
$$

SDZ017-020-022-023-036>040-048>070-241500-
SOUTHEAST SOUTH DAKOTA

CITY           SKY/WX    TMP DP  RH WIND       PRES   REMARKS
SIOUX FALLS    CLOUDY    55  38  52 S23G31    29.63F
HURON          CLOUDY    54  38  54 S21       29.53S
CHAMBERLAIN    MOSUNNY   59  41  51 S17       29.53R
MITCHELL       CLOUDY    55  38  52 S18G26    29.57S
YANKTON        CLOUDY    55  36  47 S18G24    29.61F
$$

ABBREVIATIONS USED IN REMARKS
   TC - TEMPERATURE IN CELSIUS
  WCI - WIND CHILL INDEX
   HX - HEAT INDEX
  VSB - VISIBILITY





USA.gov is the U.S. government's official web portal to all federal, state and local government web resources and services.